Powrót do katalogu

COSMOS 1375 DEB

AktywnyLEO
NORAD 18477·DEBRIS·🇷🇺 Russia

Wystrzelony Jun 6, 1982 z Plesetsk Cosmodrome

Loading…

Następne Przeloty (najbliższe 24 godziny)

TLE

ŚwieżeSource: Space-Track

Epoka: Sep 14, 2026, 13:26 UTC

1 18477U 82055BF  26257.55985825  .00004615  00000-0  11719-2 0  9993
2 18477  65.8156 317.1277 0025625 275.0166  84.8011 14.51486722 91210

Śledź COSMOS 1375 DEB w czasie rzeczywistym z AllMySat

Download on the App Store